Simultaneous Nadir Overpasses (SNOs) Predictions

Prediction of SNOs near US between AQUA and NPP Satellite Orbit:

Table of predicted SNOs near US for the next 10.0 days since TLE Epoch: 11/27/2021
Index Date (AQUA) Time (AQUA) AQUA Lat,Lon Date (NPP) Time (NPP) NPP Lat,Lon Distance(km) Time Diff (sec)
1 11/27/2021 08:34:51 21.82,-101.44 11/27/2021 08:27:01 21.91,-101.80 38.28 470
2 11/27/2021 10:11:13 30.91,-123.90 11/27/2021 10:05:54 31.09,-124.76 85.01 319
3 11/30/2021 07:19:02 49.90, -75.96 11/30/2021 07:21:42 50.40, -78.38 181.41 160
4 11/30/2021 08:57:55 49.90,-100.68 11/30/2021 09:03:10 50.51,-103.70 225.82 315
5 12/02/2021 18:17:11 49.96, -80.17 12/02/2021 18:11:56 49.62, -81.89 128.46 315
6 12/02/2021 19:56:04 49.95,-104.89 12/02/2021 19:53:24 49.52,-107.21 173.75 160
7 12/05/2021 09:23:06 26.02,-112.77 12/05/2021 09:16:25 26.13,-113.40 63.87 401
